星链-2447 (STARLINK-2447 )

导读 | 豆包AI

STARLINK-2447是美国太空探索技术公司SpaceX星链星座的成员,于2021年4月7日发射入轨。星链星座旨在构建全球低轨宽带互联网系统,该卫星采用平板设计,搭载Ku/Ka波段通信载荷,配备氪工质霍尔推进器,具备自主避撞能力,服役寿命约5-7年,退役后会主动离轨再入大气层烧毁,为偏远地区网络覆盖提供支持。

Basic Information
目录编号:
48110
目录名称:
STARLINK-2447
国际标识:
2021-027U
轨道中心:
EARTH
卫星名称:
星链-2447
卫星全名:
星链-2447 (STARLINK-2447 )
卫星状态:
已陨落 最后检测时间 2025-03-30
发射日期:
2021-04-07 UTC
国别 :
美国 (US)
星等 :
--
Orbit Information
数据来源 国际轨道数据
星历时间: 2025-03-30T05:16:07+0800
轨道信息已过期349天
半长轴: 6568.779km
偏心率: 0.0009794
轨道倾角: 53.036°
近地点辐角 301.763°
升交点赤经 234.124°
平近点角 187.446°
近地点: 184.21km
远地点: 197.078km
周期: 88.305分钟
每日圈数: 16.307067
Detailed Information
固有亮度:
5
最大亮度:
2.5
卫星平台:
Starlink V1.0
覆盖范围:
全球
运营商:
太空探索技术公司
运营商所在国:
美国
制造商(研发单位):
太空探索技术公司
制造商所在国:
美国
使用方式:
暂无
Satellite Introduction
星链(Starlink)计划是由太空探索技术公司(SpaceX)提出的一个巨型低轨卫星互联网星座项目,计划在2019年至2024年间在太空搭建由约1.2万颗卫星组成的“星链”网络,其中1584颗将部署在地球上空550千米处的近地轨道,并从2020年开始工作。该卫星仍在工作。